Wind_Speed
50 47 39 36 37 43 47 41 40 44 45 46 47 45 44 45 47 50 44 44 45 49 47 45 48 45 52 53 49 51 55 56 54 52 49 49 47 46 47 49 53 53 53 54 59 61 64 63 65
47 49 43 46 49 49 53 50 49 49 52 50 47 43 42 43 49 49 46 48 48 51 50 48 47 46 54 50 50 58 56 52 50 51 47 45 47 50 53 54 54 55 55 55 57 59 59 63 63
52 50 49 52 53 56 56 50 54 51 49 48 43 42 47 45 44 52 52 48 51 54 52 53 47 50 52 46 52 56 51 51 51 52 51 51 52 55 56 56 55 57 57 60 59 61 63 65 63
52 50 51 53 60 61 60 57 55 52 45 43 43 49 47 45 49 49 51 54 56 55 57 58 50 52 55 51 55 58 55 53 52 52 52 54 58 60 57 58 58 59 60 63 66 66 67 69 72
56 56 56 54 53 52 54 59 54 54 53 53 53 55 54 51 45 44 48 53 56 60 58 56 54 56 58 55 60 64 61 57 54 51 56 61 60 62 63 62 60 61 62 64 71 73 75 72 76
62 59 59 62 61 57 53 59 58 58 55 57 56 58 56 49 43 49 54 57 58 58 59 56 58 60 60 58 64 66 64 60 57 56 60 61 63 64 65 66 66 63 60 59 61 72 81 79 78
67 65 62 65 60 63 62 54 58 58 59 58 60 59 59 56 46 54 60 62 61 64 65 62 64 63 61 62 65 65 65 61 58 62 64 64 67 68 67 66 65 62 57 53 52 53 59 68 77
68 63 58 59 59 59 56 54 57 54 54 55 60 59 59 59 60 61 67 71 70 69 61 63 64 64 62 63 65 65 64 63 60 65 65 68 68 68 65 63 62 62 61 55 51 50 52 55 58
77 68 59 59 63 64 62 57 58 53 55 56 60 63 67 64 66 63 67 67 70 67 64 65 64 65 62 64 66 67 67 64 64 68 69 69 68 64 65 64 61 60 58 54 51 51 50 51 55
75 72 66 69 69 71 69 65 62 60 57 63 67 68 67 64 59 59 69 72 73 69 67 64 66 67 65 63 68 68 68 65 68 69 70 69 63 62 64 60 58 54 53 51 49 47 48 48 52
81 73 73 73 74 74 72 71 67 63 64 67 72 69 70 68 65 63 67 72 74 70 66 66 67 69 68 66 69 69 66 68 70 72 69 63 59 59 52 49 50 48 48 48 49 49 46 47 48
82 75 77 79 78 77 74 73 73 73 73 76 76 78 74 70 67 70 73 73 74 70 69 66 70 70 70 69 71 69 66 70 72 71 64 58 56 54 48 45 43 42 42 43 45 47 47 46 47
79 73 81 78 80 79 78 75 75 75 79 79 79 82 78 74 70 72 74 76 76 73 70 68 71 72 70 71 70 69 67 70 72 67 60 59 54 50 46 45 41 38 39 38 41 43 47 50 49
81 85 81 79 78 79 79 76 77 74 74 79 83 84 80 74 72 70 69 76 75 72 71 70 68 71 70 71 69 67 69 69 71 61 58 54 51 46 44 42 38 32 28 31 34 39 43 46 49
90 90 87 85 84 84 86 78 77 76 83 86 87 84 82 80 79 75 68 72 73 70 67 67 67 69 69 70 69 66 70 71 65 57 56 53 50 44 43 40 34 24 26 29 29 30 36 40 45
98 97 86 81 87 90 94 81 81 85 89 86 86 83 84 87 80 67 64 61 68 65 63 69 70 68 69 69 67 67 71 67 57 57 54 51 48 45 44 39 28 26 30 33 35 35 41 41 41
99 98 90 86 92 95 102 90 80 86 92 90 87 85 83 76 71 63 62 56 63 65 67 69 69 67 68 67 66 68 67 61 57 57 52 48 47 46 41 34 26 25 30 37 40 45 43 41 42
83 90 92 92 90 101 103 97 85 88 89 89 87 79 70 72 66 66 62 57 64 65 68 70 67 66 66 63 65 66 62 56 56 53 49 47 44 40 34 30 29 31 35 40 45 42 41 43 42
90 98 94 91 86 99 98 98 83 82 86 83 77 70 67 70 66 67 62 60 64 63 65 66 65 64 63 62 66 61 57 56 54 49 48 45 41 35 31 34 37 39 38 37 42 44 47 48 46
95 94 82 79 79 91 93 88 81 77 74 77 73 66 64 65 70 68 64 64 62 61 63 62 62 61 60 61 59 57 54 52 48 44 45 42 37 37 38 40 42 43 44 45 48 48 48 46 43
85 83 78 81 81 83 84 78 67 67 70 66 68 66 67 64 65 65 66 62 61 60 60 57 58 56 58 57 56 51 51 48 45 43 40 37 39 42 44 45 41 40 38 39 40 41 42 41 37
74 71 73 70 71 74 75 62 59 65 61 61 61 64 61 59 61 62 59 57 57 57 54 55 54 54 54 52 51 48 49 44 43 40 35 36 42 45 45 35 35 32 27 25 23 22 22 22 23
67 75 71 66 67 64 61 57 53 62 55 55 56 54 51 53 53 53 52 51 51 48 50 50 49 50 48 48 45 47 45 40 38 31 35 39 42 35 35 28 22 20 18 14 12 13 13 14 14
73 74 67 64 58 49 51 51 48 47 50 51 51 51 50 51 50 48 47 48 45 45 44 44 45 44 45 43 43 45 37 33 27 32 33 35 31 31 25 19 16 15 13 9 8 8 8 9 10
76 70 63 56 50 40 43 45 44 40 43 44 44 44 44 46 45 44 42 37 36 37 37 40 39 41 39 42 42 33 29 21 26 30 30 29 28 19 16 13 11 9 6 5 4 1 3 4 6
77 71 64 54 46 44 45 34 41 33 36 40 39 33 36 35 34 33 28 27 27 31 33 35 37 35 39 40 29 25 15 20 26 29 26 29 20 12 10 7 8 9 10 9 8 7 6 6 7
76 78 59 60 48 43 34 32 37 32 34 35 28 25 23 20 16 17 18 20 25 27 31 33 31 34 39 31 22 17 16 18 23 28 22 25 13 9 6 6 7 8 10 8 7 8 9 10 11
88 69 73 58 48 37 34 34 40 30 28 22 16 13 12 11 13 16 17 19 22 27 29 26 31 36 33 22 19 12 16 14 23 27 19 19 10 8 4 4 7 10 11 13 15 13 10 11 10
82 79 69 63 50 38 36 42 32 26 24 17 15 16 16 18 13 16 17 19 26 27 23 28 32 34 26 17 19 13 11 13 20 29 19 16 9 6 3 5 9 11 16 20 16 13 13 13 13
86 81 72 63 47 34 36 39 30 24 20 11 19 19 19 16 18 15 17 22 25 20 24 29 32 29 22 16 16 13 7 11 17 26 17 16 9 5 2 8 11 14 25 19 13 12 12 14 17
Wind_Direction
252 253 263 252 259 260 263 261 270 269 272 278 285 286 289 294 294 299 300 301 300 304 304 311 308 304 306 301 300 303 299 298 299 297 286 281 276 275 275 277 274 273 272 266 259 249 243 240 241
252 247 258 259 261 260 260 263 268 271 277 279 283 282 285 290 293 295 292 295 299 304 300 304 305 300 303 298 299 305 301 300 301 296 287 282 281 281 279 278 274 272 269 263 257 254 247 241 238
253 249 253 263 261 258 265 264 265 273 276 280 278 281 287 288 293 294 296 294 299 302 300 304 304 301 304 299 304 307 306 304 301 296 291 287 286 286 283 281 277 271 266 260 254 248 246 243 236
251 250 255 264 258 256 262 265 266 269 270 274 275 286 290 291 292 294 296 297 298 300 302 303 303 304 305 301 305 305 302 303 299 298 294 293 292 291 287 281 274 266 261 256 251 247 245 244 241
249 246 248 254 258 261 262 268 264 267 268 268 276 283 287 292 291 293 294 296 299 303 303 301 301 308 305 304 305 308 307 303 301 298 300 297 294 292 287 284 279 271 264 259 252 248 247 246 243
252 253 249 251 260 263 265 263 266 265 267 267 272 278 283 285 288 289 296 300 305 304 303 303 301 303 305 305 307 306 307 304 302 302 301 298 296 294 292 288 286 283 277 270 262 254 249 248 247
253 252 254 257 264 262 264 264 261 262 265 270 277 279 278 277 286 291 294 299 301 303 303 303 302 303 304 307 307 306 306 305 304 305 304 301 296 296 292 289 285 285 282 275 266 260 252 251 251
257 254 255 256 263 263 265 260 265 265 269 267 276 276 273 276 282 288 294 294 295 300 303 302 302 303 303 307 305 306 305 306 307 307 305 298 298 296 292 287 282 280 281 277 270 262 258 254 251
256 256 257 264 264 263 264 263 264 268 275 278 279 277 280 277 281 288 291 290 298 300 301 304 302 302 305 305 306 306 306 306 309 307 301 300 300 292 289 284 281 279 276 274 270 265 259 253 251
253 253 258 260 264 265 264 266 269 273 274 281 278 279 282 282 284 286 291 290 296 300 302 303 303 302 306 304 305 306 307 308 309 306 302 303 300 289 288 282 282 279 276 272 268 263 260 256 250
256 256 256 258 261 265 264 267 272 274 279 279 283 283 283 284 285 289 291 289 295 300 300 301 302 301 305 305 306 305 306 309 309 306 304 303 295 293 291 289 284 281 280 275 270 267 262 256 251
257 260 259 259 262 264 265 266 271 275 278 279 283 285 286 290 290 294 292 291 293 296 297 299 301 300 303 304 306 306 306 309 308 307 304 300 300 300 297 294 292 289 282 276 271 268 267 261 250
257 260 260 262 263 265 267 270 271 269 278 278 282 280 285 291 296 293 291 292 292 295 296 297 297 300 301 303 305 306 307 308 307 306 300 302 302 303 299 297 294 290 282 277 273 269 263 259 256
258 256 259 261 265 266 267 268 270 275 273 274 278 281 286 290 291 290 291 290 290 291 292 292 295 298 301 304 305 306 309 309 307 303 306 309 304 302 299 299 301 296 290 288 278 268 263 257 252
250 254 260 261 263 262 263 264 269 266 271 276 277 279 286 290 287 288 296 287 288 288 290 291 295 297 302 302 304 307 309 307 308 304 308 309 305 305 303 305 303 286 276 273 273 275 271 263 255
256 256 257 262 260 261 263 261 264 267 267 271 276 279 286 290 286 290 289 289 286 286 289 292 294 299 300 302 304 308 308 307 305 307 309 309 309 309 307 306 294 277 270 270 267 260 262 267 262
254 256 260 258 262 260 260 262 266 269 273 274 276 282 285 286 285 286 286 287 283 285 287 291 294 298 299 301 305 308 306 308 307 308 309 311 310 307 305 302 286 274 265 259 260 257 259 264 265
253 256 259 262 260 263 264 267 267 273 274 275 278 282 281 278 280 281 286 282 279 283 284 287 293 295 298 302 305 305 306 306 310 310 311 312 310 304 301 291 277 268 263 258 260 260 260 255 258
254 256 259 261 255 263 265 267 270 271 270 274 275 273 274 279 278 276 277 276 276 281 283 287 291 294 297 302 305 303 306 309 313 311 311 313 308 303 297 290 286 270 268 271 264 266 272 271 268
257 257 257 254 254 260 265 270 273 269 262 264 265 272 274 273 270 271 273 274 276 278 283 286 290 293 299 303 302 306 304 316 311 310 310 307 301 299 295 295 295 286 278 274 282 278 273 270 264
256 257 255 257 259 264 268 270 268 264 257 262 269 270 267 268 270 270 271 274 274 276 281 287 289 295 300 303 304 304 313 313 309 310 306 300 297 299 300 301 297 295 292 283 276 272 268 266 263
253 255 256 260 262 263 266 267 266 258 262 265 269 269 267 268 268 269 270 271 272 275 281 284 291 297 300 300 300 306 315 311 308 307 301 296 305 304 304 306 302 298 292 286 282 275 268 263 255
251 252 255 257 258 262 266 267 259 261 266 266 266 267 266 266 267 269 269 269 271 277 279 288 294 296 295 299 302 313 314 308 309 304 302 310 308 311 315 310 308 306 300 294 286 273 264 255 247
246 252 255 257 263 269 265 267 261 266 264 268 268 267 264 264 264 265 265 268 272 275 284 290 292 291 299 304 311 312 307 311 306 309 316 315 317 321 318 320 315 314 308 300 294 275 256 238 229
248 255 258 262 267 265 262 266 260 268 266 264 263 261 261 262 261 261 262 268 271 282 288 288 290 297 302 312 315 303 312 314 318 323 323 324 328 324 321 321 339 338 348 6 4 353 203 190 185
243 247 250 253 253 251 257 263 269 261 259 260 258 260 260 259 255 259 262 268 277 284 280 290 297 298 313 316 303 311 300 310 331 332 331 338 329 325 316 347 12 3 16 34 48 70 81 102 141
242 246 246 246 246 249 254 253 269 258 261 268 272 262 260 251 245 251 261 276 274 275 286 297 300 312 314 306 308 311 286 315 339 336 337 338 328 324 349 20 33 30 46 60 60 70 89 102 106
239 235 241 246 245 247 247 252 258 257 265 270 265 245 230 232 233 260 263 263 275 285 297 300 315 311 309 306 313 286 276 325 339 340 337 337 327 336 36 55 55 68 73 67 59 64 72 88 106
237 238 241 240 239 229 243 245 253 256 262 259 227 205 220 233 236 256 254 269 281 297 298 316 315 312 309 309 315 262 270 322 343 349 340 342 331 344 75 68 79 72 84 73 55 53 51 89 102
229 230 231 234 231 224 234 243 249 251 248 250 202 211 217 231 255 245 270 279 294 296 313 320 317 311 301 316 308 247 258 316 344 350 335 337 348 16 76 127 98 89 97 82 68 53 59 74 113
Height
10932 10933 10934 10933 10937 10936 10933 10935 10934 10935 10935 10935 10935 10934 10934 10932 10931 10928 10928 10927 10925 10922 10919 10918 10915 10912 10906 10900 10896 10891 10887 10881 10876 10872 10868 10865 10862 10860 10859 10857 10853 10851 10848 10846 10845 10848 10849 10851 10855
10923 10924 10926 10927 10929 10928 10926 10929 10929 10930 10929 10930 10929 10927 10926 10927 10924 10922 10921 10919 10917 10916 10911 10909 10906 10902 10896 10892 10886 10881 10876 10871 10864 10861 10858 10855 10852 10849 10845 10842 10839 10836 10834 10833 10832 10833 10835 10839 10842
10916 10917 10920 10920 10920 10920 10919 10925 10921 10924 10923 10922 10921 10920 10919 10921 10920 10912 10911 10911 10909 10907 10903 10900 10897 10892 10886 10882 10877 10871 10867 10861 10854 10850 10847 10843 10839 10836 10831 10825 10822 10820 10819 10817 10817 10819 10821 10824 10828
10907 10908 10911 10913 10911 10911 10913 10914 10916 10917 10917 10914 10913 10910 10911 10914 10910 10907 10904 10901 10900 10897 10894 10890 10887 10881 10875 10872 10866 10861 10857 10851 10843 10838 10834 10829 10824 10819 10815 10812 10809 10805 10804 10803 10802 10803 10806 10809 10813
10897 10897 10900 10903 10903 10904 10907 10903 10908 10908 10909 10909 10907 10901 10903 10908 10903 10898 10895 10893 10891 10888 10884 10880 10876 10871 10864 10860 10854 10848 10844 10839 10832 10825 10820 10814 10808 10803 10798 10795 10792 10791 10791 10790 10788 10787 10789 10792 10797
10886 10887 10891 10892 10894 10896 10898 10897 10898 10897 10900 10899 10899 10895 10893 10899 10896 10890 10884 10883 10879 10880 10872 10871 10865 10860 10855 10849 10842 10837 10831 10826 10819 10813 10808 10800 10793 10787 10781 10775 10770 10768 10767 10768 10770 10772 10772 10774 10778
10875 10878 10883 10886 10886 10885 10887 10891 10888 10889 10890 10889 10887 10887 10886 10886 10888 10882 10877 10872 10871 10869 10864 10862 10855 10850 10845 10838 10831 10826 10819 10813 10806 10799 10792 10784 10777 10773 10764 10758 10752 10748 10747 10748 10749 10751 10755 10757 10758
10863 10867 10876 10877 10874 10874 10873 10881 10879 10882 10881 10881 10877 10877 10877 10879 10880 10877 10870 10866 10859 10859 10855 10849 10844 10839 10834 10826 10820 10815 10808 10801 10794 10785 10777 10770 10763 10755 10749 10743 10737 10735 10733 10732 10733 10735 10738 10741 10742
10849 10859 10866 10863 10860 10859 10862 10869 10869 10874 10872 10870 10866 10868 10866 10870 10871 10872 10863 10857 10851 10847 10846 10840 10835 10828 10823 10815 10808 10803 10796 10789 10782 10773 10765 10757 10749 10741 10733 10729 10725 10721 10719 10717 10718 10719 10722 10726 10730
10840 10849 10856 10850 10848 10850 10854 10858 10859 10861 10865 10859 10856 10857 10858 10859 10862 10863 10853 10844 10840 10840 10833 10829 10822 10816 10811 10805 10797 10791 10784 10776 10769 10761 10752 10742 10734 10727 10721 10716 10711 10708 10704 10703 10702 10704 10707 10711 10715
10827 10842 10839 10840 10839 10837 10846 10850 10849 10852 10854 10852 10842 10844 10845 10849 10851 10852 10845 10835 10830 10826 10824 10816 10812 10804 10800 10794 10788 10779 10773 10764 10755 10746 10738 10729 10722 10713 10706 10702 10697 10694 10691 10689 10688 10690 10694 10696 10701
10812 10826 10825 10827 10827 10827 10835 10840 10843 10842 10841 10836 10831 10831 10833 10837 10838 10838 10831 10825 10820 10817 10811 10807 10799 10793 10788 10784 10777 10770 10761 10753 10744 10734 10723 10717 10709 10700 10694 10690 10684 10681 10680 10678 10677 10678 10679 10682 10687
10808 10813 10806 10816 10814 10816 10821 10830 10831 10834 10823 10820 10821 10814 10823 10825 10828 10825 10819 10812 10808 10804 10800 10796 10789 10784 10778 10770 10766 10757 10751 10742 10732 10722 10712 10704 10697 10689 10684 10679 10676 10672 10669 10668 10666 10667 10667 10670 10674
10796 10792 10798 10804 10808 10806 10807 10816 10817 10822 10808 10804 10804 10803 10812 10814 10813 10812 10808 10800 10796 10793 10789 10785 10781 10774 10767 10759 10755 10746 10739 10732 10720 10711 10702 10692 10684 10679 10674 10669 10665 10661 10659 10656 10656 10656 10655 10657 10659
10775 10776 10789 10800 10796 10796 10790 10805 10811 10797 10790 10794 10791 10794 10801 10801 10799 10799 10799 10790 10784 10781 10777 10773 10771 10763 10756 10750 10743 10736 10727 10719 10710 10699 10690 10682 10675 10669 10664 10659 10656 10655 10654 10652 10649 10647 10645 10644 10646
10758 10762 10778 10786 10776 10782 10769 10796 10793 10784 10778 10780 10783 10787 10789 10790 10789 10788 10784 10783 10772 10770 10767 10762 10757 10754 10746 10739 10733 10727 10718 10706 10700 10688 10680 10671 10664 10658 10652 10649 10647 10647 10646 10644 10642 10640 10637 10635 10635
10747 10755 10755 10762 10757 10755 10749 10778 10780 10771 10766 10774 10776 10780 10778 10779 10776 10775 10771 10772 10764 10759 10756 10752 10746 10743 10735 10730 10723 10715 10707 10699 10688 10678 10669 10663 10655 10648 10643 10640 10639 10639 10638 10635 10632 10631 10631 10628 10626
10721 10728 10740 10748 10743 10735 10741 10751 10768 10764 10757 10757 10763 10769 10769 10763 10763 10759 10757 10758 10753 10749 10745 10740 10737 10732 10726 10721 10714 10707 10698 10689 10678 10668 10659 10652 10645 10640 10635 10633 10632 10629 10626 10623 10621 10621 10621 10619 10619
10702 10712 10726 10732 10725 10719 10727 10732 10756 10755 10744 10746 10749 10751 10753 10750 10751 10745 10744 10744 10740 10739 10735 10730 10727 10722 10718 10711 10705 10696 10689 10678 10667 10658 10650 10643 10637 10632 10628 10624 10622 10618 10614 10612 10610 10608 10608 10606 10606
10686 10697 10712 10710 10713 10706 10713 10730 10737 10739 10735 10730 10732 10740 10741 10737 10730 10730 10731 10730 10731 10729 10725 10722 10717 10713 10708 10702 10694 10687 10679 10669 10659 10651 10642 10636 10631 10626 10621 10617 10612 10607 10603 10598 10597 10595 10594 10593 10594
10676 10683 10682 10691 10698 10701 10703 10717 10722 10722 10714 10723 10723 10724 10719 10721 10722 10720 10719 10721 10719 10717 10715 10714 10709 10705 10699 10693 10685 10678 10668 10661 10651 10644 10636 10631 10624 10618 10612 10607 10600 10594 10591 10587 10584 10582 10581 10581 10584
10661 10661 10665 10680 10685 10689 10688 10708 10707 10694 10707 10710 10711 10710 10711 10711 10709 10707 10709 10708 10708 10707 10707 10704 10702 10696 10691 10686 10678 10670 10661 10652 10645 10637 10630 10625 10617 10610 10603 10598 10591 10586 10582 10579 10577 10575 10574 10575 10577
10654 10641 10656 10665 10670 10678 10683 10688 10690 10682 10698 10698 10697 10699 10700 10698 10698 10698 10698 10697 10698 10699 10698 10696 10692 10688 10683 10677 10670 10661 10653 10644 10639 10631 10625 10618 10611 10603 10596 10590 10586 10582 10578 10576 10574 10573 10572 10573 10573
10623 10629 10643 10652 10663 10674 10673 10679 10673 10683 10685 10685 10687 10688 10688 10687 10687 10687 10687 10689 10691 10691 10691 10688 10684 10680 10675 10669 10661 10653 10646 10640 10633 10628 10622 10614 10607 10599 10593 10588 10585 10580 10576 10574 10572 10572 10572 10572 10572
10611 10622 10636 10646 10657 10666 10664 10666 10663 10673 10672 10674 10674 10675 10674 10675 10676 10677 10680 10683 10684 10684 10683 10680 10677 10672 10667 10660 10653 10647 10640 10636 10630 10624 10619 10610 10604 10597 10593 10589 10584 10580 10577 10575 10573 10573 10571 10571 10573
10603 10613 10627 10638 10646 10651 10654 10662 10659 10663 10662 10661 10663 10665 10663 10665 10668 10672 10675 10676 10677 10678 10676 10674 10670 10666 10658 10653 10648 10641 10637 10632 10628 10622 10615 10608 10602 10598 10595 10590 10586 10582 10580 10577 10575 10574 10573 10573 10574
10598 10597 10628 10623 10637 10644 10650 10654 10652 10653 10653 10653 10657 10657 10659 10661 10664 10667 10670 10671 10672 10671 10670 10667 10663 10657 10652 10648 10641 10636 10634 10631 10626 10620 10613 10608 10604 10599 10595 10591 10588 10586 10583 10581 10579 10578 10578 10577 10578
10570 10606 10600 10622 10632 10641 10643 10644 10640 10647 10648 10649 10650 10652 10656 10659 10662 10664 10666 10667 10667 10666 10664 10661 10656 10651 10647 10640 10636 10633 10631 10629 10625 10619 10612 10609 10604 10600 10597 10594 10592 10590 10587 10586 10584 10582 10582 10583 10583
10568 10579 10599 10610 10624 10632 10636 10630 10639 10641 10642 10644 10647 10651 10654 10657 10659 10662 10663 10663 10662 10660 10658 10654 10650 10644 10640 10635 10632 10630 10629 10628 10625 10619 10613 10609 10605 10601 10599 10597 10595 10594 10592 10592 10591 10590 10588 10587 10587
10552 10571 10590 10604 10620 10628 10627 10625 10632 10636 10637 10641 10644 10648 10651 10655 10657 10658 10659 10658 10656 10655 10652 10649 10644 10639 10635 10630 10628 10628 10627 10627 10624 10620 10614 10610 10606 10602 10601 10599 10599 10599 10598 10597 10597 10597 10594 10593 10594